2017-010B

Last updated on Feb. 24, 2017, 12:15 a.m. UTC

1 42057U 17010B   17054.85718693  .04905527  12365-4  44868-3 0  9997
2 42057  51.6170 242.8466 0008767  77.6983  61.8207 16.37923600   236

Satellite is not in orbit.